Regional Weather Roundup
Issued by NWS New Orleans/Baton Rouge, LA

Home | Current Version | Previous Version | Text Only | Print | Product List | Glossary On
Versions: 1 2 3 4 5 6 7 8 9 10 11 12 13 14 15 16 17 18 19 20 21 22 23 24 25 26 27 28 29 30 31 32 33 34 35 36 37 38 39 40 41 42 43 44 45 46 47 48 49 50
080
ASUS44 KLIX 270311
RWRLIX
NEW ORLEANS REGIONAL WEATHER ROUNDUP
NATIONAL WEATHER SERVICE NEW ORLEANS LA
1000 PM CDT MON SEP 26 2016

NOTE: "FAIR" INDICATES FEW OR NO CLOUDS BELOW 12,000 FEET WITH NO
      SIGNIFICANT WEATHER AND/OR OBSTRUCTIONS TO VISIBILITY.
      SKY/WX - SKY CONDITION AND SIGNIFICANT WEATHER.
      TMP - AIR TEMPERATURE.     DP    - DEWPOINT TEMPERATURE.
      RH  - RELATIVE HUMIDITY.   PRES  - PRESSURE.
      HI  - HEAT INDEX.          WCI   - WIND CHILL INDEX.

*  THESE STATIONS ARE NOT NWS OR FAA STATIONS AND ARE NOT UNDER
   NWS QUALITY CONTROL.

LAZ038-040-048-061>063-065>067-069-270400-
SOUTHEAST LOUISIANA

CITY           SKY/WX    TMP DP  RH WIND       PRES   REMARKS
N.O. AUDUBON   NOT AVBL
N.O. INTL ARPT MOCLDY    82  73  74 CALM      29.99R
N.O. LAKEFRONT MOCLDY    83  72  69 NW7       30.00R
N.O. DOWNTOWN*   N/A     83  73  72 VRB5      30.00R
RESERVE*         N/A     76  74  93 CALM      30.00R
SLIDELL        CLOUDY    74  72  93 W5        29.98F
BATON ROUGE    MOCLDY    78  72  81 CALM      30.01R
BOOTHVILLE     PTCLDY    81  74  79 CALM      29.98F
BELLE CHASSE   MOCLDY    73  73 100 N3        29.99R
BOGALUSA*      MOCLDY    75  70  84 N3        30.02R
GALLIANO*      NOT AVBL
NEW ROADS*     CLOUDY    75  73  93 MISG      30.02R
GONZALES*        N/A     74  73  96 N3        30.00R
HAMMOND*       MOCLDY    75  72  88 CALM      30.01R
HOUMA*         PTCLDY    74  72  93 CALM      29.99S
PORT FOURCHON* CLEAR     84  73  70 CALM      29.99S

$$

MSZ070-080>082-270400-
SOUTHERN MISSISSIPPI

CITY           SKY/WX    TMP DP  RH WIND       PRES   REMARKS
MCCOMB         CLEAR     72  70  93 CALM      30.03R FOG
GULFPORT       PTCLDY    74  74 100 N5        29.97F
BILOXI         CLOUDY    75  75 100 NE2       29.97F
PASCAGOULA     CLEAR     71  71 100 CALM      29.98S

$$

COASTAL OBSERVATIONS
LAKE AND NEARSHORE STATIONS

STATION/POSITION TIME  TEMP    WIND        PRES    WAVE
                       AIR SEA DIR/SP/G            HT/PER
                 (UTC) (F)     (DEG/KT/KT) (MB)    (FT/S)
PASCAGOULA       0200   76     310/  5/  8 1014.8
WAVELAND YACHT   0200   79 87   30/  2/  3 1015.4
GRAND ISLE       0200   84 89  230/  2/  3 1015.5
SOUTHWEST PASS   0200             CALM       N/A
NEW CANAL        0200   83 87  280/  1/  3 1014.5
SHELL BEACH      0200   80 88  270/  7/ 11 1015.7

OFFSHORE STATIONS

STATION/POSITION TIME  TEMP    WIND        PRES    WAVE
                       AIR SEA DIR/SP/G            HT/PER
                 (UTC) (F)     (DEG/KT/KT) (MB)    (FT/S)
64 S DAUPHIN ISL 0200   83 86   CALM  /  2 1015.0

$$





USA.gov is the U.S. government's official web portal to all federal, state and local government web resources and services.